Regional Weather Roundup
Issued by NWS

Home | Current Version | Previous Version | Text Only | Print | Product List | Glossary On
Versions: 1 2 3 4 5 6 7 8 9 10 11 12 13 14 15 16 17 18 19 20 21 22 23 24 25 26 27 28 29 30 31 32 33 34 35 36 37 38 39 40 41 42 43 44 45 46 47 48 49 50
000
ASHW40 PHFO 020143
RWRHI

WEATHER ROUNDUP FOR HAWAII
NATIONAL WEATHER SERVICE HONOLULU HI
300 PM HST SUN MAY 01 2016

THIS IS AN AUTOMATED REPORT THAT HAS NOT BEEN QUALITY CONTROLLED.

NOTE..."FAIR" INDICATES FEW OR NO CLOUDS BELOW 12,000 FEET WITH NO
SIGNIFICANT WEATHER AND/OR OBSTRUCTIONS TO VISIBILITY.

* - THESE SITES REPORT LIMITED FIELDS

HIZ001>004-020200-
KAUAI-NIIHAU-

CITY           SKY/WX    TMP DP  RH WIND       PRES   REMARKS
LIHUE APT      MOSUNNY   84  65  52 NE15      30.09F
PORT ALLEN*      N/A     84 N/A N/A NE20G28     N/A
POIPU*           N/A     84 N/A N/A NE9G22      N/A
PRINCEVILLE*     N/A     79 N/A N/A E13G18      N/A
KOKOLE POINT*  NOT AVBL
MOLOAA DAIRY*    N/A     81  66  61 E6G16       N/A
WAIMEA HTS*      N/A     90  66  45 W7G15       N/A  HX  92
PUU OPAE*        N/A     75  64  69 W8G14       N/A
PUU LUA*       NOT AVBL
MAKAHA RIDGE*    N/A     77  63  61 NW3         N/A
$$

HIZ005>011-020200-
OAHU-

CITY           SKY/WX    TMP DP  RH WIND       PRES   REMARKS
HONOLULU       MOSUNNY   84  65  52 NE14G22   30.05F
KALAELOA       SUNNY     84  63  49 E12G21    30.05F
KANEOHE MCB    PTSUNNY   80  69  69 NE15G21   30.04F
WHEELER FIELD  FAIR      74  65  73 NE9       30.06F
BELLOWS*         N/A    N/A N/A N/A NE12G17     N/A
KAHUKU*          N/A    N/A N/A N/A VRB7G13     N/A
WHEELER*         N/A    N/A N/A N/A NE6         N/A
WAIANAE HARBOR   N/A    N/A N/A N/A NE8G15      N/A
DILLINGHAM*      N/A     84  64  51 MISG        N/A
KAHUKU TRN*      N/A     81  68  65 CALM        N/A
KAWAILOA*        N/A     72  66  83 NE14        N/A
KII*             N/A     75  70  83 E12G26      N/A
MAKUA RANGE*     N/A     84  70  61 E10G22      N/A
OAHU FOREST NW   N/A     70  63  78 S18G29      N/A
SCHOFIELD BRK*   N/A     75  63  64 MISG        N/A
SCHOFIELD S*   NOT AVBL
WAIANAE VLY*     N/A     82  64  54 E5G15       N/A
KUAOKALA*        N/A     73  66  78 E16G32      N/A
HONOULIUULI*   NOT AVBL
MOKUOLOE IS*   NOT AVBL
PALEHUA*         N/A     70  63  78 NE7G18      N/A
WAIAWA PHB*    NOT AVBL
$$

HIZ012>013-020200-
MOLOKAI-

CITY           SKY/WX    TMP DP  RH WIND       PRES   REMARKS
MOLOKAI AIRPT  MOSUNNY   81  66  61 NE17G24   30.04F
KALAUPAPA      NOT AVBL
MAKAPULAPAI*     N/A     81  68  65 E18G24      N/A
MOLOKAI 1*       N/A     73  59  60 N5G13       N/A
PUU ALII*        N/A     64  61  90 N2G8        N/A
$$

HIZ016-020200-
KAHOOLAWE-

CITY           SKY/WX    TMP DP  RH WIND       PRES   REMARKS
KAHOOLAWE*       N/A     73 N/A N/A E1          N/A
HAKIOAWA*        N/A     73  67  82 MISG      30.45S
HONOKANAIA*      N/A     85  65  51 NE18G36   29.96F
KANELOA*         N/A     77  66  69 E18G35      N/A
KEALIALALO*    NOT AVBL
LUA MAKIKA*    NOT AVBL
$$

HIZ014>015-020200-
LANAI-

CITY           SKY/WX    TMP DP  RH WIND       PRES   REMARKS
LANAI CITY     FAIR      78  65  63 NE23G29   30.07F
LANAI 1*         N/A     73  64  73 NE21G33     N/A
$$

HIZ017>028-020200-
MAUI-

CITY           SKY/WX    TMP DP  RH WIND       PRES   REMARKS
KAHULUI        MOSUNNY   84  68  58 NE30G37   30.02S
KAPALUA-W MAUI MOSUNNY   81  66  61 NE21      30.04
HANA AIRPORT   NOT AVBL
HANA*            N/A     79 N/A N/A NE12        N/A
HALEAKALA SUMM   N/A     52  23  32 SE14        N/A
MAALAEA BAY*     N/A     82 N/A N/A N22G36      N/A
HALEAKALA*     NOT AVBL
KAUPO GAP*       N/A     72  57  60 S7G21       N/A
KULA 1*          N/A     56  54  94 W3          N/A
$$

HIZ023>026-020200-
BIG ISLAND OF HAWAII COAST AND LOWER SLOPES-

CITY           SKY/WX    TMP DP  RH WIND       PRES   REMARKS
KAILUA KONA    PTSUNNY   85  67  54 S13       29.98F
HILO           MOSUNNY   81  67  62 NE8       30.04F
HONOKAA*         N/A     75 N/A N/A VRB1        N/A
KAWAIHAE MWT*    N/A     81 N/A N/A W14         N/A
KAWAIHAE*        N/A     79 N/A N/A SW12      29.98S
SOUTH POINT*     N/A     75 N/A N/A NE15G22     N/A
UPOLU AIRPORT*   N/A    N/A N/A N/A NE20G28     N/A
KAMUELA*       MOCLDY    73  61  64 NE21      30.10F
HAKALAU*         N/A     60  52  75 SE6G12      N/A
KALOKO-HONOKO*   N/A     82  64  54 S8G14     29.98F
PALI 2*          N/A     75  57  53 SW21G31     N/A
KEALAKOMO*       N/A     82  68  61 E21G31      N/A
KAUPULEHU*       N/A     79  61  53 NW9G17      N/A
KAPAPALA*        N/A     77  64  63 E10G21      N/A
LOWER KAHUKU*    N/A     64 -38   1 E3G12       N/A
PUHE CS*         N/A     84  66  54 W5G13       N/A
PUHO CS*         N/A     81  66  60 W3          N/A
PTA KEAMUKU*     N/A     72  59  64 CALM        N/A
WAIKOLOA*        N/A     82  61  47 NE18G29     N/A
$$

HIZ027>028-020200-
BIG ISLAND OF HAWAII INTERIOR AND SUMMMITS-

CITY           SKY/WX    TMP DP  RH WIND       PRES   REMARKS
BRADSHAW FIELD MOSUNNY   69  52  53 W12G20    30.29F
MK VISITOR CEN   N/A     57  16  19 SE16        N/A
MAUNA KEA*       N/A     45  -8  11 NE26        N/A
MAUNA LOA*       N/A     57  10  15 MISG        N/A
MAUNA LOA 1*   NOT AVBL
PTA KIPUKA*      N/A     66  52  59 NW10G18     N/A
PTA RANGE 17*    N/A     68  52  56 W13G21      N/A
PTA WEST*        N/A     72  55  56 NW12G23     N/A
NENE CABIN*      N/A     57  54  88 E8G16       N/A
AHUMOA*          N/A     62  60  92 NE9         N/A
PTA PORTABLE*  NOT AVBL
PUU MALI*        N/A     66  43  42 E17G32      N/A
$$

HIC003-020200-
NORTHWEST ISLANDS-

CITY           SKY/WX    TMP DP  RH WIND       PRES   REMARKS
MIDWAY ISLAND  CLOUDY    75  68  78 E15       30.21F
MIDWAY NOS*      N/A     72 N/A N/A MISG      30.18F
FRENCH FRIGATE NOT AVBL
$$

PHZ110>124-180-020200-
BUOY REPORTS

STATION/POSITION TIME  TEMP    WIND        PRES    WAVE   SWELL
                       AIR SEA DIR/SP/G            HT/PER HT/DIR
                 (UTC) (F)     (DEG/KT/KT) (MB)    (FT/S) (FT/D)
BUOY 51001       0100   77 79   80/ 17/ 21 1018.1F
BUOY 51101       0050   75 76   50/ 14/ 16 1020.1F   7/11   5/320
BUOY 51100       NOT AVBL
BUOY 51002       0050   78 78   90/ 16/ 17 1014.4F   8/ 9   7/ 90
BUOY 51003       0050   78 79   70/ 14/ 17 1016.0F   7/ 9   7/ 70
BUOY 51004       0050   79 79   70/ 16/ 17 1014.7F   7/ 7   5/ 80
BARBERS PT BUOY  NOT AVBL
WAIMEA BAY BUOY  0104      78                N/A     5/13   3/340
KAILUA BAY BUOY  0111      78                N/A     5/13   2/360
LANAI BUOY       0115      79                N/A     3/17   2/200
BARBERS PT 2     0103      79                N/A     4/13   3/180
PAUWELA MAUI     0109      77                N/A     6/14   3/320
HILO             0112      78                N/A     6/10   2/110
KANEOHE BAY BUOY 0106      78                N/A     6/13   2/340
HANALEI KAUAI    NOT AVBL
KAHULUI HARBOR   0100   77 78              1016.4
HONOLULU HARBOR  0100   79 79              1017.9
KILO NALU        NOT AVBL
HILO HARBOR      0100   80 76              1016.9
MOKUOLOE         0000   78 79              1018.5F
NAWILIWILI       0100   78 80              1018.5
WHOTS BUOY       NOT AVBL
BUOY 51028       NOT AVBL
$$

......................KEY........................................
  SKY/WX - SKY CONDITIONS/PRESENT WEATHER
  TMP    - TEMPERATURE IN FAHRENHEIT
  DWPT   - DEWPOINT IN FAHRENHEIT
  RH     - RELATIVE HUMIDITY IN PERCENT
  WIND   - DIRECTION AND SPEED /MPH FOR ISLANDS...KTS FOR BUOYS/
  PRES   - MEAN SEA LEVEL PRESSURE IN INCHES OF HG
  VSB    - VISIBILITY IN MILES
  HX     - HEAT INDEX
  WCI    - WIND CHILL INDEX
  VRB    - VARIABLE WIND DIRECTION
  N/A    - NOT AVAILABLE



USA.gov is the U.S. government's official web portal to all federal, state and local government web resources and services.